Regional Weather Roundup
Issued by NWS Green Bay, WI

Home | Current Version | Previous Version | Graphics & Text | Print | Product List | Glossary Off
Versions: 1 2 3 4 5 6 7 8 9 10 11 12 13 14 15 16 17 18 19 20 21 22 23 24 25 26 27 28 29 30 31 32 33 34 35 36 37 38 39 40 41 42 43 44 45 46 47 48 49 50

000
ASUS43 KGRB 290311
RWRGRB

NORTH-CENTRAL AND NORTHEAST WISCONSIN REGIONAL WEATHER ROUNDUP
NATIONAL WEATHER SERVICE GREEN BAY WI
1000 PM CDT THU MAY 28 2015

WIZ005-009-010>012-018-019-290400-
NORTH CENTRAL WISCONSIN

CITY           SKY/WX    TMP DP  RH WIND       PRES   REMARKS
IRONWOOD       CLEAR     72  54  53 S6        29.95R
MANITOWISH WTR PTCLDY    68  55  61 S6        30.01S
ARBOR VITAE    PTCLDY    70  57  63 S6        30.02S
EAGLE RIVER    PTCLDY    68  53  58 S3        30.03R
LAND O LAKES   PTCLDY    69  52  55 S3        30.03S
RHINELANDER    PTCLDY    68  55  63 S5        30.04R
PHILLIPS       MOCLDY    67  56  69 S6        30.01R
ANTIGO         CLEAR     61  57  86 S7        30.05S
TOMAHAWK       PTCLDY    63  56  79 CALM      30.03R
MERRILL        CLEAR     68  55  63 S5        30.04R
$$

WIZ013-073-290400-
NORTHEAST WISCONSIN

CITY           SKY/WX    TMP DP  RH WIND       PRES   REMARKS
IRON MOUNTAIN  PTCLDY    65  61  87 S5        30.03S
MARINETTE      PTCLDY    66  52  59 S8        30.05S
OCONTO         CLEAR     66  56  70 S7        30.05S
$$

WIZ017-030-035>037-045-290400-
CENTRAL WISCONSIN

CITY           SKY/WX    TMP DP  RH WIND       PRES   REMARKS
MEDFORD        PTCLDY    65  56  71 S8        30.03R
WAUSAU         PTCLDY    68  55  63 S7        30.02R
MOSINEE        CLEAR     64  55  72 S7        30.04S
MARSHFIELD     PTCLDY    68  53  58 SE5       30.02R
WISC RAPIDS    PTCLDY    68  53  58 SE5       30.03S
STEVENS POINT  PTCLDY    67  53  61 SE3       30.04R
WAUPACA        CLEAR     69  56  61 SE7       30.04S
SHAWANO        CLEAR     70  60  70 SE7       30.05R
CLINTONVILLE   CLEAR     66  55  68 SE6       30.04R
$$

WIZ038-039-048-051-290400-
FOX VALLEY

CITY           SKY/WX    TMP DP  RH WIND       PRES   REMARKS
NWS GREEN BAY  CLEAR     69  53  56 S10       30.06S
APPLETON       PTCLDY    70  54  56 SE9       30.07R
OSHKOSH        CLEAR     64  55  72 S7        30.05S
FOND DU LAC    CLEAR     66  54  65 SE8       30.06R
$$

WIZ022-050-052-290400-
EAST CENTRAL WISCONSIN

CITY           SKY/WX    TMP DP  RH WIND       PRES   REMARKS
STURGEON BAY   CLEAR     63  52  67 S10       30.10S
MANITOWOC      CLEAR     62  55  77 S9        30.09S
SHEBOYGAN      CLEAR     62  54  74 S5        30.09R
$$

LMZ563-521-522-541>543-290400-
LAKESHORE

STATION/POSITION TIME  TEMP    WIND        PRES    VSBY  WAVE
                       AIR SEA DIR/SP/G                  HT/PER
                 (UTC) (F)     (DEG/KT/KT) (MB)    (MI)  (FT/S)
SHEBOYGAN LKSHOR 0300   60     190/ 12/ 12 1019.0S
KEWAUNEE LKSHORE 0200   53     170/  8/ 10 1018.0F
ALGOMA MARINA    0208          210/  8/  9   N/A
NORTHPORT PIER   0200   59     160/  7/ 11 1018.3F
N MID LAKE BUOY  0250   42 36  170/  8/  8 1019.3F         1
SISTER BAY LKSHO 0218   60     160/ 10/ 13   N/A
CHAMBERS ISLAND  0200   67     150/  7/ 13 1017.6F
MENOMINEE LKSHOR 0200   63     170/  8/ 10 1018.2F
$$


USA.gov is the U.S. government's official web portal to all federal, state and local government web resources and services.